This is the latest recevied weather packets stored in our database for station/object AA1FF. If no packets are shown the sender has not sent any weather packets the latest 10 day(s).
| Time | Temp. | Humidity | Pressure | Rain* | Wind** | Luminosity | Snow |
|---|---|---|---|---|---|---|---|
| 1777854223 | 6.67° C | 55% | 1009 hPa | 0 mm | - | 0 W/m² | - |
| 1777853923 | 7.22° C | 55% | 1009 hPa | 0 mm | - | 0 W/m² | - |
| 1777853623 | 7.78° C | 53% | 1009 hPa | 0 mm | - | 0 W/m² | - |
| 1777853323 | 7.78° C | 53% | 1009 hPa | 0 mm | - | 0 W/m² | - |
| 1777853023 | 8.33° C | 50% | 1009 hPa | 0 mm | - | 0 W/m² | - |
| 1777852723 | 8.89° C | 49% | 1009 hPa | 0 mm | - | 1 W/m² | - |
| 1777852424 | 9.44° C | 49% | 1009 hPa | 0 mm | - | 2 W/m² | - |
| 1777852123 | 10° C | 47% | 1009 hPa | 0 mm | - | 4 W/m² | - |
| 1777851823 | 10° C | 42% | 1009 hPa | 0 mm | - | 6 W/m² | - |
| 1777851523 | 10° C | 40% | 1009 hPa | 0 mm | - | 9 W/m² | - |
| 1777851224 | 10.56° C | 40% | 1009 hPa | 0 mm | - | 13 W/m² | - |
| 1777850923 | 10.56° C | 40% | 1009 hPa | 0 mm | - | 15 W/m² | - |
| 1777850624 | 10.56° C | 40% | 1009 hPa | 0 mm | - | 19 W/m² | - |
| 1777850323 | 10.56° C | 39% | 1009 hPa | 0 mm | - | 22 W/m² | - |
| 1777850024 | 10.56° C | 39% | 1009 hPa | 0 mm | - | 25 W/m² | - |
| 1777849723 | 10.56° C | 39% | 1009 hPa | 0 mm | - | 29 W/m² | - |
| 1777849425 | 11.11° C | 38% | 1009 hPa | 0 mm | - | 32 W/m² | - |
| 1777849125 | 11.11° C | 38% | 1009 hPa | 0 mm | - | 34 W/m² | - |
| 1777848824 | 11.11° C | 38% | 1009 hPa | 0 mm | - | 38 W/m² | - |
| 1777848524 | 11.11° C | 38% | 1009 hPa | 0 mm | - | 49 W/m² | - |
| 1777848223 | 11.11° C | 38% | 1009 hPa | 0 mm | - | 84 W/m² | - |
| 1777847924 | 11.11° C | 39% | 1009 hPa | 0 mm | - | 117 W/m² | - |
| 1777847623 | 11.11° C | 38% | 1009 hPa | 0 mm | - | 136 W/m² | - |
| 1777847323 | 11.11° C | 39% | 1009 hPa | 0 mm | - | 154 W/m² | - |
| 1777847023 | 11.11° C | 39% | 1009 hPa | 0 mm | - | 60 W/m² | - |
* Rain latest hour (hover to see other rain measurements)
** Current wind speed in m/s (hover to see current wind gust speed)